Location: Newark
(34.9500°N, 139.9667°E)
Time: 20:02:36
(UTC+00:00)

Vanguard 1 Rocket - Pass Details

Date: 11 December 2019
Orbit: 651 x 4226 km, 34.3° (Epoch: 28 January)

Event Time Altitude Azimuth Distance (km) Brightness Sun altitude
Rises 10:46:05 0° 237° (WSW) 8,291 13.0 -39.6°
Reaches altitude 10° 10:52:21 10° 235° (SW) 6,982 12.4 -40.9°
Enters shadow 11:12:10 64° 178° (S) 2,829 9.6 -44.9°
Maximum altitude 11:13:15 65° 160° (SSE) 2,719 - -45.1°
Drops below altitude 10° 11:24:02 10° 81° (E) 3,885 - -47.3°
Sets 11:26:28 0° 78° (ENE) 4,551 - -47.8°
